Lake Shasta Weather Center

Moon Phase Calendar



Lake Shasta Water Level
Online Cameras

 


      

Current Conditions in Lake Shasta
1/26/2021 10:34:24 AM

35°F
Feels Like 28
Clouds
Humidity
75%
Pressure
29.85"
Wind
5.1 mph (SSE)
Dew Point
29°F
UV Index
1/10 (Low)
Visibility
6 mi

Hourly Forecast

Date & Time Tue, Jan 26
10:00 AM
Tue, Jan 26
11:00 AM
Tue, Jan 26
12:00 PM
Tue, Jan 26
1:00 PM
Tue, Jan 26
2:00 PM
Tue, Jan 26
3:00 PM
Tue, Jan 26
4:00 PM
Tue, Jan 26
5:00 PM
Tue, Jan 26
6:00 PM
Tue, Jan 26
7:00 PM
Tue, Jan 26
8:00 PM
Tue, Jan 26
9:00 PM
Tue, Jan 26
10:00 PM
Tue, Jan 26
11:00 PM
Wed, Jan 27
12:00 AM
Wed, Jan 27
1:00 AM
Wed, Jan 27
2:00 AM
Wed, Jan 27
3:00 AM
Wed, Jan 27
4:00 AM
Wed, Jan 27
5:00 AM
Wed, Jan 27
6:00 AM
Wed, Jan 27
7:00 AM
Wed, Jan 27
8:00 AM
Wed, Jan 27
9:00 AM
Wed, Jan 27
10:00 AM
Wed, Jan 27
11:00 AM
Wed, Jan 27
12:00 PM
Wed, Jan 27
1:00 PM
Wed, Jan 27
2:00 PM
Wed, Jan 27
3:00 PM
Wed, Jan 27
4:00 PM
Wed, Jan 27
5:00 PM
Wed, Jan 27
6:00 PM
Wed, Jan 27
7:00 PM
Wed, Jan 27
8:00 PM
Wed, Jan 27
9:00 PM
Wed, Jan 27
10:00 PM
Wed, Jan 27
11:00 PM
Thu, Jan 28
12:00 AM
Thu, Jan 28
1:00 AM
Thu, Jan 28
2:00 AM
Thu, Jan 28
3:00 AM
Thu, Jan 28
4:00 AM
Thu, Jan 28
5:00 AM
Thu, Jan 28
6:00 AM
Thu, Jan 28
7:00 AM
Thu, Jan 28
8:00 AM
Thu, Jan 28
9:00 AM
Condition
Clouds

Clouds

Clouds

Clouds

Clouds

Snow

Snow

Snow

Snow

Snow

Snow

Snow

Snow

Snow

Snow

Snow

Rain

Rain

Rain

Rain

Rain

Rain

Rain

Rain

Rain

Rain

Rain

Rain

Rain

Rain

Rain

Rain

Rain

Rain

Rain

Rain

Rain

Rain

Rain

Rain

Rain

Rain

Rain

Rain

Rain

Rain

Rain

Rain
Temperature 35°F37°F38°F39°F39°F38°F36°F35°F35°F35°F34°F34°F33°F33°F33°F33°F34°F34°F35°F36°F36°F36°F37°F37°F37°F38°F38°F38°F38°F38°F38°F39°F39°F39°F39°F38°F38°F38°F38°F38°F38°F38°F38°F39°F39°F38°F39°F39°F
Feels Like 30°F30°F30°F30°F30°F28°F27°F27°F26°F26°F26°F24°F23°F25°F26°F27°F28°F27°F27°F29°F29°F29°F30°F29°F29°F30°F32°F32°F33°F34°F34°F34°F34°F34°F33°F34°F34°F34°F35°F35°F34°F34°F35°F35°F34°F35°F35°F36°F
Cloudiness 69%84%93%98%100%100%100%100%100%100%100%100%100%100%100%100%100%100%100%100%100%100%100%100%100%100%100%100%100%100%100%100%100%100%100%100%100%100%100%100%100%100%100%100%100%100%100%100%
Visibility 6 mi6 mi6 mi6 mi6 mi5 mi6 mi5 mi0 mi0 mi0 mi0 mi0 mi0 mi0 mi0 mi0 mi0 mi0 mi0 mi0 mi0 mi0 mi0 mi0 mi0 mi0 mi0 mi0 mi0 mi0 mi0 mi0 mi0 mi0 mi0 mi0 mi0 mi0 mi0 mi0 mi0 mi0 mi0 mi0 mi0 mi0 mi0 mi
Precipitation 0%0%0%5%27%48%66%96%96%93%97%100%100%100%100%100%100%100%100%85%88%90%93%100%100%93%100%100%100%100%100%86%85%93%100%100%100%84%92%91%91%91%91%94%98%95%93%100%
Humidity 75%70%68%69%70%73%82%86%89%90%91%92%94%95%95%95%93%92%92%92%92%93%92%92%92%92%92%92%92%92%93%92%92%92%92%92%92%92%92%92%92%92%92%92%92%92%92%92%
Dew Point 29°F28°F29°F30°F30°F27°F29°F30°F31°F32°F32°F32°F31°F31°F31°F31°F32°F32°F33°F34°F34°F35°F35°F35°F35°F36°F36°F36°F36°F36°F36°F37°F37°F37°F37°F37°F36°F36°F36°F36°F36°F36°F36°F37°F37°F37°F37°F37°F
Pressure 29.85"29.85"29.85"29.8"29.77"29.74"29.71"29.68"29.68"29.65"29.65"29.65"29.62"29.59"29.59"29.59"29.59"29.62"29.62"29.65"29.65"29.68"29.68"29.71"29.71"29.71"29.71"29.71"29.68"29.68"29.68"29.68"29.68"29.68"29.68"29.68"29.71"29.71"29.71"29.71"29.71"29.71"29.71"29.71"29.71"29.71"29.71"29.74"
Wind Speed 2.1 mph4.7 mph6.8 mph8.3 mph9.1 mph10.9 mph9.2 mph8.2 mph8.7 mph8.2 mph7.9 mph11.4 mph11.3 mph8.3 mph5.3 mph4.5 mph4 mph6.5 mph8.1 mph6 mph7.2 mph7.1 mph6.9 mph8.9 mph8.4 mph8 mph6 mph5.5 mph3.3 mph2.6 mph3 mph3.8 mph4.7 mph3.7 mph4 mph2.7 mph1.9 mph2 mph0.8 mph1 mph1.6 mph1.9 mph1.6 mph1.6 mph2.5 mph1.4 mph1.2 mph0.6 mph
Wind
Direction
130°
SE
164°
SSE
180°
S
183°
S
192°
SSW
187°
S
187°
S
176°
S
173°
S
195°
SSW
190°
S
174°
S
171°
S
173°
S
177°
S
166°
SSE
210°
SSW
186°
S
187°
S
180°
S
169°
S
169°
S
200°
SSW
183°
S
176°
S
171°
S
174°
S
164°
SSE
155°
SSE
125°
SE
115°
ESE
143°
SE
146°
SE
135°
SE
128°
SE
135°
SE
126°
SE
124°
SE
94°
E
55°
NE
86°
E
65°
ENE
115°
ESE
129°
SE
139°
SE
124°
SE
90°
E
107°
ESE

Daily Forecast

Date High Low Precip. Humidity
Today
Jan 26

Snow
39 °F
28 °F
100%
68%
Wednesday
Jan 27

Snow
39 °F
33 °F
100%
92%
Thursday
Jan 28

Rain
40 °F
36 °F
100%
93%
Friday
Jan 29

Rain
41 °F
32 °F
94%
86%
Saturday
Jan 30

Rain
40 °F
36 °F
100%
91%
Sunday
Jan 31

Rain
45 °F
40 °F
100%
92%
Monday
Feb 1

Rain
46 °F
44 °F
100%
92%
Tuesday
Feb 2

Rain
46 °F
31 °F
100%
76%
Wednesday
Feb 3

Clear
45 °F
27 °F
2%
60%
Thursday
Feb 4

Clouds
47 °F
31 °F
0%
67%
Friday
Feb 5

Clouds
48 °F
30 °F
0%
55%
Saturday
Feb 6

Clouds
50 °F
31 °F
3%
58%
Sunday
Feb 7

Clear
43 °F
26 °F
7%
59%
Monday
Feb 8

Clear
46 °F
24 °F
0%
54%
Tuesday
Feb 9

Clouds
51 °F
32 °F
0%
54%
Wednesday
Feb 10

Clouds
52 °F
36 °F
0%
59%


Temperature 8-14 Day Outlook



Precipitation 8-14 Day Outlook




Quick Links
Lake Shasta News
Lake Shasta Photos
Lake Shasta Videos




About Us
Contact Us
Site Map
Search Site
Advertise With Us
   
Shasta.USLakes.info
THE LAKE SHASTA WEBSITE

Copyright 2021, Lakes Online
Privacy    |    Legal